Regional Weather Roundup
Issued by NWS

Home | Current Version | Previous Version | Text Only | Print | Product List | Glossary On
Versions: 1 2 3 4 5 6 7 8 9 10 11 12 13 14 15 16 17 18 19 20 21 22 23 24 25 26 27 28 29 30 31 32 33 34 35 36 37 38 39 40 41 42 43 44 45 46 47 48 49 50
000
ASUS43 KMKX 220121
RWRWI

WISCONSIN REGIONAL WEATHER ROUNDUP
NATIONAL WEATHER SERVICE MILWAUKEE/SULLIVAN WI
800 PM CDT THU SEP 21 2017

NOTE: "FAIR" INDICATES FEW OR NO CLOUDS BELOW 12,000 FEET WITH NO
SIGNIFICANT WEATHER AND/OR OBSTRUCTIONS TO VISIBILITY.

WIZ001-002-006>008-014>016-023>028-220200-
NORTHWEST WISCONSIN

CITY           SKY/WX    TMP DP  RH WIND       PRES   REMARKS
SUPERIOR ARPT  CLOUDY    60  58  92 NE14      29.91R
ASHLAND        PTCLDY    58  56  93 CALM      29.92S
HAYWARD        PTCLDY    71  66  84 SE5       29.91S
SIREN          PTCLDY    72  66  81 E5        29.87S
CUMBERLAND     PTCLDY    70  64  83 E7        29.89S
RICE LAKE      PTCLDY    72  67  85 E9        29.90S HAZE
CHETEK           N/A     72  69  90 SE5       29.89S
LADYSMITH      CLEAR     71  66  86 E6        29.94S
EAU CLAIRE     CLEAR     76  66  71 SE9       29.88R
MENOMONIE      PTCLDY    74  66  77 E7        29.87S
NEW RICHMOND   CLEAR     74  65  72 SE8       29.84S
OSCEOLA        CLEAR     75  66  73 E14       29.85S
$$

WIZ003>005-009-010-017-018-220200-
NORTH CENTRAL WISCONSIN

CITY           SKY/WX    TMP DP  RH WIND       PRES   REMARKS
MANITOWISH WTR PTCLDY    69  69 100 SE6       29.98R
ARBOR VITAE    CLEAR     72  68  88 SE7       29.98S
WOODRUFF       CLEAR     72  68  88 SE7       29.98S
RHINELANDER    CLEAR     67  67 100 SE5       30.00S
EAGLE RIVER    CLEAR     69  64  82 SE5       30.00S
LAND O LAKES   CLOUDY    72  65  79 S7        30.01R
PHILLIPS       CLEAR     68  67  96 SE5       29.96S
TOMAHAWK       CLEAR     67  64  91 CALM      29.99R
MEDFORD        CLEAR     70  66  89 SE5       29.97R
MERRILL        CLEAR     70  68  95 SE5       29.98S
$$

WIZ029-030-035-036-043>047-220200-
CENTRAL WISCONSIN

CITY           SKY/WX    TMP DP  RH WIND       PRES   REMARKS
WAUSAU         CLEAR     71  67  87 E7        29.96R
MOSINEE        CLEAR     72  66  83 E6        29.99R
MARSHFIELD     CLEAR     71  64  78 SE6       29.95S
STEVENS POINT  CLEAR     67  67  99 E3        29.98R
WAUPACA        CLEAR     71  70  95 CALM      29.98R
WAUTOMA        CLEAR     70  68  93 CALM      29.97R
WISC RAPIDS    CLEAR     70  66  87 E5        29.96S
CAMP DOUGLAS   CLEAR     68  66  94 E6        29.93R
$$

WIZ011>013-019>022-031-037>040-048>050-220200-
NORTHEAST WISCONSIN

CITY           SKY/WX    TMP DP  RH WIND       PRES   REMARKS
ANTIGO         CLEAR     67  67 100 E6        30.02R
SHAWANO        CLEAR     72  70  92 E3        29.99R FOG
OCONTO         CLEAR     68  66  93 E3        30.00R
STURGEON BAY   FOG       64  64 100 SE6       30.03R VSB 1/2
GREEN BAY      CLOUDY    69  68  96 NE6       29.99R
MANITOWOC      FOG       64  64 100 CALM      30.02S VSB 3/4
APPLETON       MOCLDY    75  61  60 VRB5      29.98R
CLINTONVILLE   CLEAR     70  66  88 SE3       29.98R
OSHKOSH        CLOUDY    75  67  76 SE7       29.98R
$$

WIZ032>034-041-042-053>061-220200-
SOUTHWEST WISCONSIN

CITY           SKY/WX    TMP DP  RH WIND       PRES   REMARKS
LA CROSSE      CLEAR     81  63  54 SE8       29.87S HX  82
SPARTA         CLEAR     73  65  75 E6        29.92R
VIROQUA        CLEAR     75  63  64 SE9       29.93S
BOSCOBEL       CLEAR     82  64  54 S7        29.91S HX  83
PRAIRIE DU CHI CLEAR     80  62  54 SE8G16    29.89S HX  81
PLATTEVILLE    CLEAR     76  66  71 SE7       29.96R
$$

WIZ056-057-062-063-064-067-068-220200-
SOUTH CENTRAL WISCONSIN

CITY           SKY/WX    TMP DP  RH WIND       PRES   REMARKS
REEDSBURG      CLEAR     75  67  75 E3        29.94S
BARABOO/DELLS  CLEAR     75  66  72 SE7       29.96R
LONE ROCK      CLEAR     75  67  76 E8        29.93S
MINERAL POINT  CLEAR     77  64  65 SE6       29.96S
MADISON        CLOUDY    74  69  85 CALM      29.97R
MIDDLETON      CLOUDY    78  66  67 SE5       29.98R
WATERTOWN      MOCLDY    72  70  92 E5        29.98S
MONROE         PTCLDY    77  63  61 SE9       29.98R
JANESVILLE     PTCLDY    79  64  61 SE6       29.98R HX  81
$$

WIZ051-052-058>065-066-070>072-220200-
SOUTHEAST WISCONSIN

CITY           SKY/WX    TMP DP  RH WIND       PRES   REMARKS
MILWAUKEE      PTCLDY    74  69  85 SE6       30.00R
WAUKESHA       CLEAR     75  66  73 SE7       30.02R
MILWAUKEE/TIMM CLEAR     75  64  69 CALM      30.01R
RACINE         PTCLDY    74  70  87 SE6       30.03R FOG
BURLINGTON     PTCLDY    77  69  75 SE5       30.01R
KENOSHA        CLEAR     75  67  76 E6        30.01R
FOND DU LAC    CLOUDY    76  66  71 SE9       29.99R
SHEBOYGAN      CLOUDY    71  68  90 SE3       30.01R
WEST BEND        N/A     70  68  94 CALM      30.02R
JUNEAU         CLOUDY    73  67  81 E7        30.01R
$$

LSZ147-162-220200-
LAKE SUPERIOR

STATION/POSITION TIME  TEMP    WIND        PRES    WAVE
                       AIR SEA DIR/SP/G            HT/PER
                 (UTC) (F)     (DEG/KT/KT) (MB)    (FT/S)
W MID LAKE BUOY  0050   58 54   80/ 16/ 16 1013.7R   2/ 4
DEVILS ISLAND    0100   60      70/ 13/ 15 1013.0S
SAXON HARBOR     0040   62     180/  2/  3 1012.2S
$$

LMZ867-665-643>646-220200-
LAKE MICHIGAN

STATION/POSITION TIME  TEMP    WIND        PRES    WAVE
                       AIR SEA DIR/SP/G            HT/PER
                 (UTC) (F)     (DEG/KT/KT) (MB)    (FT/S)
S GREEN BAY BUOY 0100   69 68  120/  6/  8 1015.7
N MID LAKE BUOY  0050   68 66  170/  8/  8 1017.0R   1
NORTHPORT PIER   0040   68     140/  5/  7 1015.9S
KEWAUNEE LAKESHO 0054   64     130/  1/  2 1015.8R
SHEBOYGAN LAKESH 0100   69     120/  2/  3 1015.9R
PORT WASHINGTON  0030   71      70/  3/  4 1016.9R
ATWATER BUOY     0009   70 67  110/  4/  4 1016.1R
MILWAUKEE LAKESH 0100   71      30/  2/  3   N/A
S MID LAKE BUOY  0050   73 70   70/ 10/ 12 1016.0R   0
KENOSHA   LAKESH 0100   73        CALM     1015.9
$$

TC  - TEMPERATURE IN CELSIUS
VSB - VISIBILITY IN STATUTE MILES
WCI - WIND CHILL INDEX
HX  - HEAT INDEX




USA.gov is the U.S. government's official web portal to all federal, state and local government web resources and services.